Showing default

LACUNASAT-3, 46492

Orbit data source: Space-Track

LACUNASAT-3, 46492 is a Lithuanian payload satellite in SSO that was launched on Mon, 28 Sep 2020 UTC via a SOYUZ-2-1B launch vehicle from the Plesetsk Missile And Space Complex (PKMTR). Payloads include a variety of satellites, spacecraft, and rockets equipped with specific instruments for various scientific and technological missions. These include communications satellites like Starlink; space stations such as the ISS; scientific satellites like the Hubble; Earth observation satellites from companies like Planet Labs, Umbra, and HawkEye 360; GPS; miniature CubeSats for education and research; and military/defense satellites.

Loading next visibility...
LACUNASAT-3 details
Identifier
46492, 2020-068G
Orbit
SSO
Last TLE update8 hours ago
Origin
Flag of LTLACU/NANAVU (LT / LTU)
ManufacturerNanoAvionics
MissionOperational Commercial Communications
Bus & MotorCUBESAT 3U, Unknown motor
Mass4 kg wet, 4 kg dry
Launch date (UTC)
2020-09-28 (4 years ago)
Launch vehicle
SOYUZ-2-1B
Launch site
Plesetsk Missile And Space Complex (PKMTR)
Object type
Payload
Rocket body
Debris
Shape & HBRBox, 0.3 m
Radar Cross Section0.035 m², Small (<0.1 m²)

Expand to show TLE details & history

TLE from 8 hours ago
0 LACUNASAT-3
1 46492U 20068G   24361.21062103  .00265283  00000-0  20164-2 0  9993
2 46492  97.8126 343.5312 0004633  57.5162 302.6547 15.71497260234528
Epoch: 2024-12-26T05:03Z
Definitive object data (Epoch: 2024-12-26T05:03:17.656Z)
Latitude-0.00006°
Longitude172.51436°
Altitude356.082 km
Speed7.696 km/s
True Right ascension22h 54m 07s
True Declination0° 00' 00"
Sunlit
Object was in daylight at TLE epoch
Visualization TLE readout
Latitude1.08281°
Longitude-6.94633°
Altitude358.82 km
Speed7.693 km/s
Apparent Right ascension08h 01m 23s
Apparent Declination-49° 42' 32"
Sunlit
Object is in full shadow
Visualization observer readout
Local Sidereal Time12:48:53
Azimuth220.717° SW
Elevation-19.582°
Doppler factor1
Orbital elements
Apogee altitude354.651 km
Perigee altitude348.415 km
Semi-major axis6,729.67 km
Eccentricity0.0004633
Inclination97.8126°
RAAN343.5312°
Arg. of periapsis57.5162°
True anomaly302.60999°
Mean anomaly302.6547°
Eccentric anomaly302.63235°
Mean motion3.93145 °/min
BSTAR0.0020164
Orbital period91.57 mins
Loading maneuver chart data...
Loading historical data...
Loading historical data...
Loading historical data...
Loading historical data...
Loading historical data...
Loading historical data...
Loading historical data...

LACUNASAT-3 Visibility forecast

Observer location: undefined°, undefined

Span
Click to sort rows by Start time (UTC) header in descending order
Start Az.
Max El. time (UTC)
Max El. Az.
Max El.
End time (UTC)
End Az.
4 mins2024-12-26 23:31:12.793Z199.011° SSW2024-12-26 23:33:12.793Z249.059° W26.068°2024-12-26 23:35:12.793Z316.36° NNW
|